Location: Partizánske
(48.6285°N, 18.3769°E)
Time: 06:52:54
(UTC+02:00)

Transit 2A Rocket - All Passes

Search period start: 25 June 2022 00:00
Search period end: 05 July 2022 00:00
Orbit: 593 x 908 km, 66.7° (Epoch: 24 June)

Date Brightness Start Highest point End Pass type
(mag) Time Alt. Az. Time Alt. Az. Time Alt. Az.
25 Jun - 06:06:46 10° S 06:11:04 27° ESE 06:15:06 10° NE daylight
25 Jun - 07:48:30 10° SW 07:53:25 50° NW 07:57:57 10° NNE daylight
25 Jun - 09:34:31 10° WNW 09:36:59 14° NNW 09:39:22 10° N daylight
25 Jun - 13:04:18 10° N 13:06:23 13° NNE 13:08:27 10° NE daylight
25 Jun - 14:45:42 10° NNW 14:49:57 51° NE 14:54:11 10° SE daylight
25 Jun - 16:28:52 10° WNW 16:32:07 21° WSW 16:35:22 10° SSW daylight
26 Jun - 05:25:21 10° SSE 05:28:29 16° ESE 05:31:29 10° ENE daylight
26 Jun - 07:05:25 10° SW 07:10:32 80° NW 07:15:13 10° NE daylight
26 Jun - 08:50:20 10° WNW 08:53:43 19° NW 08:56:58 10° NNE daylight
26 Jun - 12:22:40 10° NNE 12:23:01 10° NNE 12:23:23 10° NNE daylight
26 Jun - 14:03:02 10° NNW 14:06:59 32° NE 14:10:52 10° ESE daylight
26 Jun - 15:45:33 10° NW 15:49:30 36° WSW 15:53:30 10° S daylight
27 Jun - 06:22:40 10° SSW 06:27:43 63° ESE 06:32:22 10° NE daylight
27 Jun - 08:06:27 10° W 08:10:34 26° NW 08:14:27 10° NNE daylight
27 Jun - 13:20:28 10° NNW 13:23:53 22° NE 13:27:15 10° E daylight
27 Jun - 15:02:31 10° NW 15:06:49 66° WSW 15:11:06 10° SSE daylight
28 Jun - 05:40:18 10° S 05:44:59 37° ESE 05:49:20 10° NE daylight
28 Jun - 07:22:52 10° WSW 07:27:31 38° NW 07:31:50 10° NNE daylight
28 Jun - 09:09:40 10° NW 09:11:18 12° NNW 09:12:55 10° N daylight
28 Jun - 12:38:00 10° N 12:40:40 16° NNE 12:43:19 10° ENE daylight
28 Jun - 14:19:39 10° NNW 14:24:00 72° NE 14:28:19 10° SE daylight
28 Jun - 16:03:31 10° WNW 16:05:56 15° WSW 16:08:22 10° SW daylight
29 Jun - 04:58:26 10° SSE 05:02:20 22° ESE 05:06:01 10° ENE daylight
29 Jun - 06:39:36 10° SW 06:44:34 60° NW 06:49:09 10° NNE daylight
29 Jun - 08:25:11 10° WNW 08:28:00 15° NNW 08:30:41 10° N daylight
29 Jun - 11:55:45 10° N 11:57:22 12° NNE 11:58:58 10° NE daylight
29 Jun - 13:36:56 10° NNW 13:41:05 42° NE 13:45:12 10° ESE daylight
29 Jun - 15:19:48 10° WNW 15:23:24 26° WSW 15:26:59 10° S daylight
30 Jun - 04:17:29 10° SE 04:19:47 13° ESE 04:22:01 10° E daylight
30 Jun - 05:56:38 10° SSW 06:01:42 85° ESE 06:06:22 10° NE daylight
30 Jun - 07:41:07 10° W 07:44:45 21° NW 07:48:14 10° NNE daylight
30 Jun - 12:54:17 10° NNW 12:58:03 27° NE 13:01:46 10° E daylight
30 Jun - 14:36:36 10° NW 14:40:44 46° WSW 14:44:54 10° S daylight
01 Jul - 05:14:01 10° SSW 05:18:56 51° ESE 05:23:27 10° NE daylight
01 Jul - 06:57:21 10° WSW 07:01:39 30° NW 07:05:41 10° NNE daylight
01 Jul - 12:11:46 10° NNW 12:14:55 19° NE 12:18:02 10° E daylight
01 Jul - 13:53:39 10° NW 13:57:59 82° WSW 14:02:20 10° SSE daylight
01 Jul - 15:39:34 10° WSW 15:39:43 10° WSW 15:39:50 10° WSW daylight
02 Jul - 04:31:49 10° S 04:36:13 30° ESE 04:40:20 10° NE daylight
02 Jul - 06:13:53 10° WSW 06:18:38 45° NW 06:23:03 10° NNE daylight
02 Jul - 08:00:12 10° NW 08:02:16 13° NNW 08:04:18 10° N daylight
02 Jul - 11:29:21 10° N 11:31:40 14° NNE 11:33:57 10° ENE daylight
02 Jul - 13:10:51 10° NNW 13:15:08 58° NE 13:19:25 10° SE daylight
02 Jul - 14:54:13 10° WNW 14:57:13 18° WSW 15:00:14 10° SSW daylight
03 Jul - 03:50:13 10° SSE 03:53:36 18° ESE 03:56:50 10° ENE visible
03 Jul - 05:30:43 10° SW 05:35:43 72° NW 05:40:19 10° NNE daylight
03 Jul - 07:15:53 10° WNW 07:18:59 17° NNW 07:21:59 10° N daylight
03 Jul - 10:47:23 10° N 10:48:19 11° NNE 10:49:15 10° NNE daylight
03 Jul - 12:28:09 10° NNW 12:32:10 35° NE 12:36:10 10° ESE daylight
03 Jul - 14:10:46 10° NW 14:14:37 32° WSW 14:18:30 10° S daylight
04 Jul - 03:10:28 10° ESE 03:11:05 10° ESE 03:11:42 10° E visible
04 Jul - 04:47:53 10° SSW 04:52:53 70° ESE 04:57:29 10° NE daylight
04 Jul - 06:31:55 10° W 06:35:48 23° NW 06:39:29 10° NNE daylight
04 Jul - 11:45:33 10° NNW 11:49:05 24° NE 11:52:37 10° E daylight
04 Jul - 13:27:41 10° NW 13:31:55 57° WSW 13:36:12 10° SSE daylight
